,,PA_Meas_PMT16A,,PR_Meas_QMR101_102,,RH_Meas_QMH101,,SR_Meas_QMS101,,TA_Meas_QMH101,,GenWind,,GenWind,
time,status,PA,status,PR,status,RH,status,SR,status,TA,status,DirAvg,status,SpdAvg,
2013-08-19, 00:00:05,VALID,917.925,VALID,0,VALID,96.8326,VALID,0,VALID,20.2668,VALID,13,VALID,0,
2013-08-19, 00:01:05,VALID,917.97,VALID,0,VALID,96.8098,VALID,0.107441,VALID,20.2684,VALID,354,VALID,0,
2013-08-19, 00:02:05,VALID,918.01,VALID,0,VALID,96.8326,VALID,0,VALID,20.2668,VALID,8,VALID,0,
2013-08-19, 00:03:05,VALID,918.004,VALID,0.2,VALID,96.8403,VALID,0.107441,VALID,20.2863,VALID,5,VALID,0,
2013-08-19, 00:04:05,VALID,918.046,VALID,0.2,VALID,96.8326,VALID,0.107441,VALID,20.3448,VALID,2,VALID,0,
2013-08-19, 00:05:05,VALID,918.047,VALID,0.6,VALID,96.8479,VALID,0,VALID,20.4829,VALID,332,VALID,0,
2013-08-19, 00:06:05,VALID,918.011,VALID,0.8,VALID,96.8403,VALID,0,VALID,20.4618,VALID,331,VALID,0,
2013-08-19, 00:07:05,VALID,918.02,VALID,0.6,VALID,96.8403,VALID,0.107441,VALID,20.4033,VALID,348,VALID,0,
2013-08-19, 00:08:05,VALID,918.061,VALID,0.6,VALID,96.8174,VALID,0.107441,VALID,20.3448,VALID,36,VALID,0,
2013-08-19, 00:09:05,VALID,918.035,VALID,0.8,VALID,96.8326,VALID,0,VALID,20.2863,VALID,353,VALID,0,
2013-08-19, 00:10:05,VALID,918.023,VALID,1,VALID,96.825,VALID,0,VALID,20.3074,VALID,1,VALID,0,
2013-08-19, 00:11:05,VALID,918.034,VALID,1.2,VALID,96.8326,VALID,0,VALID,20.2293,VALID,336,VALID,0,
2013-08-19, 00:12:05,VALID,917.978,VALID,1.2,VALID,96.8174,VALID,0,VALID,20.0148,VALID,351,VALID,0,
2013-08-19, 00:13:05,VALID,917.962,VALID,0.8,VALID,96.8174,VALID,0,VALID,19.9368,VALID,6,VALID,0,
2013-08-19, 00:14:05,VALID,917.99,VALID,0.6,VALID,96.8174,VALID,0,VALID,19.8588,VALID,320,VALID,0,
2013-08-19, 00:15:05,VALID,917.93,VALID,0.6,VALID,96.8326,VALID,0,VALID,19.7613,VALID,21,VALID,0,
2013-08-19, 00:16:05,VALID,917.923,VALID,0.2,VALID,96.8326,VALID,0,VALID,19.7808,VALID,21,VALID,0,
2013-08-19, 00:17:05,VALID,917.894,VALID,0.4,VALID,96.8479,VALID,0,VALID,19.8003,VALID,329,VALID,0,
2013-08-19, 00:18:05,VALID,917.841,VALID,0.2,VALID,96.8784,VALID,0,VALID,19.7613,VALID,9,VALID,0,
2013-08-19, 00:19:05,VALID,917.87,VALID,0,VALID,96.886,VALID,0,VALID,19.7223,VALID,315,VALID,0,
2013-08-19, 00:20:05,VALID,917.805,VALID,0.2,VALID,96.8707,VALID,0,VALID,19.7028,VALID,2,VALID,0,
2013-08-19, 00:21:05,VALID,917.813,VALID,0,VALID,96.9012,VALID,0,VALID,19.6443,VALID,5,VALID,0,
2013-08-19, 00:22:05,VALID,917.813,VALID,0.2,VALID,96.886,VALID,0,VALID,19.6068,VALID,350,VALID,0,
2013-08-19, 00:23:05,VALID,917.781,VALID,0,VALID,96.886,VALID,0,VALID,19.5288,VALID,350,VALID,0,
2013-08-19, 00:24:05,VALID,917.728,VALID,0.4,VALID,96.8707,VALID,0,VALID,19.4493,VALID,27,VALID,0,
2013-08-19, 00:25:05,VALID,917.73,VALID,0.2,VALID,96.8707,VALID,0.107441,VALID,19.4088,VALID,24,VALID,0,
2013-08-19, 00:26:05,VALID,917.787,VALID,0.2,VALID,96.8707,VALID,0,VALID,19.3503,VALID,358,VALID,0,
2013-08-19, 00:27:05,VALID,917.745,VALID,0.2,VALID,96.8936,VALID,0,VALID,19.2723,VALID,349,VALID,0,
2013-08-19, 00:28:05,VALID,917.772,VALID,0.6,VALID,96.886,VALID,0,VALID,19.2334,VALID,11,VALID,0,
2013-08-19, 00:29:05,VALID,917.753,VALID,0.4,VALID,96.9089,VALID,0.107441,VALID,19.2334,VALID,329,VALID,0,
2013-08-19, 00:30:05,VALID,917.741,VALID,0.6,VALID,96.9241,VALID,0,VALID,19.1944,VALID,19,VALID,0,
2013-08-19, 00:31:05,VALID,917.736,VALID,0.6,VALID,96.9394,VALID,0,VALID,19.2348,VALID,2,VALID,0,
2013-08-19, 00:32:05,VALID,917.709,VALID,0.8,VALID,96.947,VALID,0.107441,VALID,19.1958,VALID,352,VALID,0,
2013-08-19, 00:33:05,VALID,917.636,VALID,0.6,VALID,96.9317,VALID,0,VALID,19.1763,VALID,74,VALID,0,
2013-08-19, 00:34:05,VALID,917.597,VALID,0.2,VALID,96.9698,VALID,0,VALID,19.1164,VALID,264,VALID,0,
2013-08-19, 00:35:05,VALID,917.602,VALID,0.6,VALID,96.9698,VALID,0.107441,VALID,19.1554,VALID,301,VALID,0,
2013-08-19, 00:36:04,VALID,917.604,VALID,0.4,VALID,96.9698,VALID,0.107441,VALID,19.1944,VALID,263,VALID,0,
2013-08-19, 00:37:04,VALID,917.576,VALID,0.4,VALID,96.9851,VALID,0.107441,VALID,19.1944,VALID,207,VALID,0,
2013-08-19, 00:38:04,VALID,917.584,VALID,0.2,VALID,96.9927,VALID,0.107441,VALID,19.2139,VALID,195,VALID,0,
2013-08-19, 00:39:04,VALID,917.584,VALID,0.2,VALID,97.008,VALID,0,VALID,19.2348,VALID,202,VALID,0,
2013-08-19, 00:40:04,VALID,917.56,VALID,0.4,VALID,96.9927,VALID,0,VALID,19.2348,VALID,201,VALID,0,
2013-08-19, 00:41:04,VALID,917.53,VALID,0,VALID,97.0156,VALID,0.107441,VALID,19.2348,VALID,201,VALID,0,
2013-08-19, 00:42:04,VALID,917.525,VALID,0.2,VALID,96.9851,VALID,0,VALID,19.2348,VALID,234,VALID,0,
2013-08-19, 00:43:04,VALID,917.514,VALID,0,VALID,97.0156,VALID,0.107441,VALID,19.2153,VALID,261,VALID,0,
2013-08-19, 00:44:04,VALID,917.53,VALID,0.2,VALID,97.0156,VALID,0,VALID,19.2139,VALID,261,VALID,0,
2013-08-19, 00:45:04,VALID,917.481,VALID,0,VALID,97.0156,VALID,0.107441,VALID,19.1944,VALID,261,VALID,0,
2013-08-19, 00:46:04,VALID,917.445,VALID,0,VALID,97.0385,VALID,0,VALID,19.1944,VALID,255,VALID,0,
2013-08-19, 00:47:04,VALID,917.444,VALID,0.2,VALID,97.0308,VALID,0,VALID,19.2543,VALID,256,VALID,0,
2013-08-19, 00:48:04,VALID,917.438,VALID,0,VALID,97.0385,VALID,0,VALID,19.2543,VALID,256,VALID,0,
2013-08-19, 00:49:04,VALID,917.46,VALID,0.2,VALID,97.0308,VALID,0.107441,VALID,19.2348,VALID,255,VALID,0,
2013-08-19, 00:50:04,VALID,917.439,VALID,0,VALID,97.0461,VALID,0,VALID,19.2738,VALID,261,VALID,0,
2013-08-19, 00:51:04,VALID,917.449,VALID,0,VALID,97.0385,VALID,0.107441,VALID,19.3128,VALID,221,VALID,0,
2013-08-19, 00:52:04,VALID,917.413,VALID,0.2,VALID,97.0308,VALID,0,VALID,19.2528,VALID,219,VALID,0,
2013-08-19, 00:53:04,VALID,917.411,VALID,0,VALID,97.0537,VALID,0,VALID,19.2153,VALID,218,VALID,0,
2013-08-19, 00:54:04,VALID,917.402,VALID,0,VALID,97.0537,VALID,0.107441,VALID,19.1944,VALID,181,VALID,0,
2013-08-19, 00:55:04,VALID,917.37,VALID,0,VALID,97.0537,VALID,0,VALID,19.1958,VALID,211,VALID,0,
2013-08-19, 00:56:04,VALID,917.361,VALID,0,VALID,97.0537,VALID,0,VALID,19.2153,VALID,227,VALID,0,
2013-08-19, 00:57:04,VALID,917.347,VALID,0,VALID,97.0613,VALID,0,VALID,19.1958,VALID,221,VALID,0,
2013-08-19, 00:58:04,VALID,917.331,VALID,0.2,VALID,97.0537,VALID,0,VALID,19.2153,VALID,220,VALID,0,
2013-08-19, 00:59:04,VALID,917.363,VALID,0,VALID,97.0842,VALID,0,VALID,19.2543,VALID,220,VALID,0,
2013-08-19, 01:00:04,VALID,917.279,VALID,0,VALID,97.0613,VALID,0,VALID,19.2948,VALID,357,VALID,0,
2013-08-19, 01:01:04,VALID,917.289,VALID,0,VALID,97.0918,VALID,0.107441,VALID,19.2738,VALID,2,VALID,0,
2013-08-19, 01:02:04,VALID,917.266,VALID,0,VALID,97.069,VALID,0,VALID,19.2348,VALID,42,VALID,0,
2013-08-19, 01:03:04,VALID,917.231,VALID,0,VALID,97.0613,VALID,0,VALID,19.2348,VALID,37,VALID,0,
2013-08-19, 01:04:04,VALID,917.251,VALID,0,VALID,97.0766,VALID,0.107441,VALID,19.2918,VALID,35,VALID,0,
2013-08-19, 01:05:04,VALID,917.223,VALID,0,VALID,97.0918,VALID,0,VALID,19.2933,VALID,17,VALID,0,
2013-08-19, 01:06:04,VALID,917.213,VALID,0.2,VALID,97.0842,VALID,0.107441,VALID,19.2738,VALID,29,VALID,0,
2013-08-19, 01:07:04,VALID,917.203,VALID,0,VALID,97.069,VALID,0,VALID,19.2139,VALID,35,VALID,0,
2013-08-19, 01:08:04,VALID,917.218,VALID,0,VALID,97.069,VALID,0,VALID,19.1554,VALID,25,VALID,0,
2013-08-19, 01:09:04,VALID,917.23,VALID,0,VALID,97.0918,VALID,0,VALID,19.1763,VALID,12,VALID,0,
2013-08-19, 01:10:04,VALID,917.22,VALID,0,VALID,97.0842,VALID,0,VALID,19.2153,VALID,16,VALID,0,
2013-08-19, 01:11:04,VALID,917.235,VALID,0,VALID,97.0994,VALID,0,VALID,19.1763,VALID,10,VALID,0,
2013-08-19, 01:12:04,VALID,917.248,VALID,0,VALID,97.0994,VALID,0,VALID,19.2348,VALID,10,VALID,0,
2013-08-19, 01:13:04,VALID,917.264,VALID,0,VALID,97.1147,VALID,0,VALID,19.2153,VALID,332,VALID,0,
2013-08-19, 01:14:04,VALID,917.289,VALID,0,VALID,97.1147,VALID,0,VALID,19.1568,VALID,332,VALID,0,
2013-08-19, 01:15:04,VALID,917.266,VALID,0,VALID,97.1071,VALID,0,VALID,19.1973,VALID,332,VALID,0,
2013-08-19, 01:16:04,VALID,917.268,VALID,0,VALID,97.0994,VALID,0,VALID,19.1178,VALID,332,VALID,0,
2013-08-19, 01:17:04,VALID,917.279,VALID,0,VALID,97.1071,VALID,0,VALID,19.0983,VALID,258,VALID,0,
2013-08-19, 01:18:04,VALID,917.277,VALID,0.2,VALID,97.1299,VALID,0,VALID,19.0788,VALID,216,VALID,0,
2013-08-19, 01:19:04,VALID,917.29,VALID,0,VALID,97.1223,VALID,0,VALID,19.1178,VALID,194,VALID,0,
2013-08-19, 01:20:04,VALID,917.248,VALID,0,VALID,97.1071,VALID,0,VALID,19.0983,VALID,201,VALID,0,
2013-08-19, 01:21:04,VALID,917.229,VALID,0,VALID,97.1223,VALID,0,VALID,19.0983,VALID,201,VALID,0,
2013-08-19, 01:22:04,VALID,917.245,VALID,0,VALID,97.1299,VALID,0,VALID,19.0983,VALID,201,VALID,0,
2013-08-19, 01:23:04,VALID,917.264,VALID,0,VALID,97.1528,VALID,0,VALID,19.0983,VALID,201,VALID,0,
2013-08-19, 01:24:04,VALID,917.307,VALID,0,VALID,97.1452,VALID,0,VALID,19.0983,VALID,201,VALID,0,
2013-08-19, 01:25:04,VALID,917.278,VALID,0,VALID,97.1528,VALID,0,VALID,19.0983,VALID,201,VALID,0,
2013-08-19, 01:26:04,VALID,917.312,VALID,0,VALID,97.1299,VALID,0,VALID,19.0398,VALID,175,VALID,0,
2013-08-19, 01:27:04,VALID,917.332,VALID,0.2,VALID,97.1299,VALID,0,VALID,19.0203,VALID,174,VALID,0,
2013-08-19, 01:28:04,VALID,917.32,VALID,0,VALID,97.1452,VALID,0,VALID,18.9994,VALID,174,VALID,0,
2013-08-19, 01:29:04,VALID,917.287,VALID,0,VALID,97.1452,VALID,0,VALID,19.0008,VALID,174,VALID,0,
2013-08-19, 01:30:04,VALID,917.26,VALID,0,VALID,97.1376,VALID,0,VALID,19.0008,VALID,174,VALID,0,
2013-08-19, 01:31:04,VALID,917.232,VALID,0,VALID,97.1528,VALID,0,VALID,19.0008,VALID,174,VALID,0,
2013-08-19, 01:32:04,VALID,917.2,VALID,0,VALID,97.1757,VALID,0,VALID,19.0218,VALID,174,VALID,0,
2013-08-19, 01:33:04,VALID,917.208,VALID,0,VALID,97.1681,VALID,0,VALID,19.0023,VALID,174,VALID,0,
2013-08-19, 01:34:04,VALID,917.184,VALID,0,VALID,97.1681,VALID,0,VALID,18.9814,VALID,148,VALID,0,
2013-08-19, 01:35:04,VALID,917.171,VALID,0,VALID,97.1681,VALID,0,VALID,19.0023,VALID,147,VALID,0,
2013-08-19, 01:36:04,VALID,917.162,VALID,0,VALID,97.1681,VALID,0,VALID,18.9828,VALID,120,VALID,0,
2013-08-19, 01:37:04,VALID,917.139,VALID,0,VALID,97.1604,VALID,0,VALID,18.9619,VALID,120,VALID,0,
2013-08-19, 01:38:04,VALID,917.15,VALID,0,VALID,97.1757,VALID,0,VALID,18.9619,VALID,119,VALID,0,
2013-08-19, 01:39:04,VALID,917.13,VALID,0,VALID,97.1757,VALID,0,VALID,18.9828,VALID,109,VALID,0,
2013-08-19, 01:40:04,VALID,917.162,VALID,0.2,VALID,97.1757,VALID,0,VALID,18.9619,VALID,113,VALID,0,
2013-08-19, 01:41:04,VALID,917.132,VALID,0,VALID,97.1909,VALID,0,VALID,18.9619,VALID,113,VALID,0,
2013-08-19, 01:42:04,VALID,917.118,VALID,0,VALID,97.1833,VALID,0,VALID,18.9814,VALID,116,VALID,0,
2013-08-19, 01:43:04,VALID,917.109,VALID,0.2,VALID,97.1909,VALID,0,VALID,19.0008,VALID,119,VALID,0,
2013-08-19, 01:44:04,VALID,917.086,VALID,0,VALID,97.1833,VALID,0,VALID,19.0008,VALID,119,VALID,0,
2013-08-19, 01:45:04,VALID,917.05,VALID,0,VALID,97.1909,VALID,0,VALID,19.0203,VALID,127,VALID,0,
2013-08-19, 01:46:04,VALID,917.048,VALID,0,VALID,97.1757,VALID,0,VALID,19.0398,VALID,113,VALID,0,
2013-08-19, 01:47:04,VALID,917.04,VALID,0.2,VALID,97.1757,VALID,0,VALID,19.0608,VALID,124,VALID,0,
2013-08-19, 01:48:04,VALID,917.03,VALID,0,VALID,97.1909,VALID,0,VALID,19.0398,VALID,124,VALID,0,
2013-08-19, 01:49:04,VALID,917.001,VALID,0,VALID,97.1833,VALID,0,VALID,19.0398,VALID,124,VALID,0,
2013-08-19, 01:50:04,VALID,916.978,VALID,0.2,VALID,97.1909,VALID,0,VALID,19.1193,VALID,124,VALID,0,
2013-08-19, 01:51:04,VALID,916.954,VALID,0,VALID,97.1909,VALID,0,VALID,19.0983,VALID,124,VALID,0,
2013-08-19, 01:52:04,VALID,916.908,VALID,0,VALID,97.1833,VALID,0,VALID,19.1583,VALID,124,VALID,0,
2013-08-19, 01:53:04,VALID,916.851,VALID,0.2,VALID,97.2062,VALID,0,VALID,19.1763,VALID,125,VALID,0,
2013-08-19, 01:54:04,VALID,916.814,VALID,0,VALID,97.1833,VALID,0,VALID,19.1973,VALID,124,VALID,0,
2013-08-19, 01:55:04,VALID,916.814,VALID,0.2,VALID,97.1833,VALID,0,VALID,19.1763,VALID,124,VALID,0,
2013-08-19, 01:56:04,VALID,916.822,VALID,0.2,VALID,97.1909,VALID,0,VALID,19.1568,VALID,143,VALID,0,
2013-08-19, 01:57:04,VALID,916.851,VALID,0,VALID,97.1833,VALID,0,VALID,19.1373,VALID,146,VALID,0,
2013-08-19, 01:58:04,VALID,916.854,VALID,0.2,VALID,97.1833,VALID,0,VALID,19.1973,VALID,145,VALID,0,
2013-08-19, 01:59:04,VALID,916.9,VALID,0,VALID,97.1833,VALID,0,VALID,19.1778,VALID,145,VALID,0,
2013-08-19, 02:00:04,VALID,916.876,VALID,0.2,VALID,97.1757,VALID,0,VALID,19.1778,VALID,145,VALID,0,
2013-08-19, 02:01:04,VALID,916.923,VALID,0,VALID,97.1604,VALID,0,VALID,19.1373,VALID,145,VALID,0,
2013-08-19, 02:02:04,VALID,916.919,VALID,0.2,VALID,97.2062,VALID,0,VALID,19.1178,VALID,145,VALID,0,
2013-08-19, 02:03:04,VALID,916.909,VALID,0,VALID,97.1833,VALID,0,VALID,19.1164,VALID,145,VALID,0,
2013-08-19, 02:04:04,VALID,916.903,VALID,0,VALID,97.1909,VALID,0,VALID,19.1373,VALID,143,VALID,0,
2013-08-19, 02:05:04,VALID,916.895,VALID,0,VALID,97.2214,VALID,0,VALID,19.1388,VALID,143,VALID,0,
2013-08-19, 02:06:04,VALID,916.887,VALID,0,VALID,97.1909,VALID,0,VALID,19.0983,VALID,143,VALID,0,
2013-08-19, 02:07:04,VALID,916.894,VALID,0.2,VALID,97.1986,VALID,0,VALID,19.1373,VALID,143,VALID,0,
2013-08-19, 02:08:04,VALID,916.905,VALID,0,VALID,97.2062,VALID,0,VALID,19.1373,VALID,143,VALID,0,
2013-08-19, 02:09:04,VALID,916.908,VALID,0,VALID,97.1909,VALID,0,VALID,19.1373,VALID,143,VALID,0,
2013-08-19, 02:10:04,VALID,916.886,VALID,0,VALID,97.2062,VALID,0,VALID,19.2153,VALID,143,VALID,0,
2013-08-19, 02:11:04,VALID,916.878,VALID,0,VALID,97.1986,VALID,0,VALID,19.2348,VALID,143,VALID,0,
2013-08-19, 02:12:04,VALID,916.872,VALID,0.2,VALID,97.1986,VALID,0.107441,VALID,19.2153,VALID,144,VALID,0,
2013-08-19, 02:13:04,VALID,916.809,VALID,0,VALID,97.1986,VALID,0.107441,VALID,19.2153,VALID,144,VALID,0,
2013-08-19, 02:14:04,VALID,916.788,VALID,0.2,VALID,97.2214,VALID,0,VALID,19.1763,VALID,144,VALID,0,
2013-08-19, 02:15:04,VALID,916.757,VALID,0,VALID,97.2062,VALID,0,VALID,19.1763,VALID,144,VALID,0,
2013-08-19, 02:16:04,VALID,916.736,VALID,0,VALID,97.2138,VALID,0,VALID,19.1763,VALID,144,VALID,0,
2013-08-19, 02:17:04,VALID,916.733,VALID,0,VALID,97.1986,VALID,0,VALID,19.1763,VALID,144,VALID,0,
2013-08-19, 02:18:04,VALID,916.732,VALID,0,VALID,97.1986,VALID,0,VALID,19.1958,VALID,144,VALID,0,
2013-08-19, 02:19:04,VALID,916.672,VALID,0,VALID,97.2062,VALID,0,VALID,19.1958,VALID,144,VALID,0,
2013-08-19, 02:20:04,VALID,916.7,VALID,0.2,VALID,97.1986,VALID,0,VALID,19.1763,VALID,144,VALID,0,
2013-08-19, 02:21:04,VALID,916.691,VALID,0,VALID,97.2138,VALID,0,VALID,19.1568,VALID,145,VALID,0,
2013-08-19, 02:22:04,VALID,916.681,VALID,0,VALID,97.2138,VALID,0,VALID,19.1583,VALID,145,VALID,0,
2013-08-19, 02:23:04,VALID,916.659,VALID,0,VALID,97.2443,VALID,0,VALID,19.1388,VALID,145,VALID,0,
2013-08-19, 02:24:04,VALID,916.651,VALID,0,VALID,97.2138,VALID,0,VALID,19.1373,VALID,145,VALID,0,
2013-08-19, 02:25:04,VALID,916.632,VALID,0,VALID,97.2367,VALID,0,VALID,19.1388,VALID,145,VALID,0,
2013-08-19, 02:26:04,VALID,916.607,VALID,0,VALID,97.229,VALID,0,VALID,19.0998,VALID,144,VALID,0,
2013-08-19, 02:27:04,VALID,916.635,VALID,0,VALID,97.2138,VALID,0,VALID,19.0803,VALID,138,VALID,0,
2013-08-19, 02:28:04,VALID,916.622,VALID,0,VALID,97.2443,VALID,0,VALID,19.0189,VALID,102,VALID,0,
2013-08-19, 02:29:04,VALID,916.594,VALID,0,VALID,97.2138,VALID,0,VALID,19.0203,VALID,102,VALID,0,
2013-08-19, 02:30:04,VALID,916.628,VALID,0.2,VALID,97.2443,VALID,0,VALID,19.0203,VALID,102,VALID,0,
2013-08-19, 02:31:04,VALID,916.623,VALID,0,VALID,97.229,VALID,0,VALID,19.0203,VALID,115,VALID,0,
2013-08-19, 02:32:04,VALID,916.62,VALID,0,VALID,97.2443,VALID,0,VALID,19.0413,VALID,112,VALID,0,
2013-08-19, 02:33:04,VALID,916.601,VALID,0,VALID,97.2443,VALID,0,VALID,19.0218,VALID,112,VALID,0,
2013-08-19, 02:34:04,VALID,916.592,VALID,0,VALID,97.2443,VALID,0,VALID,19.0008,VALID,115,VALID,0,
2013-08-19, 02:35:04,VALID,916.558,VALID,0,VALID,97.2519,VALID,0,VALID,18.9814,VALID,105,VALID,0,
2013-08-19, 02:36:04,VALID,916.546,VALID,0.2,VALID,97.2595,VALID,0.107441,VALID,19.0023,VALID,90,VALID,0,
2013-08-19, 02:37:04,VALID,916.523,VALID,0,VALID,97.2367,VALID,0,VALID,18.9814,VALID,97,VALID,0,
2013-08-19, 02:38:04,VALID,916.509,VALID,0,VALID,97.2443,VALID,0,VALID,19.0023,VALID,99,VALID,0,
2013-08-19, 02:39:04,VALID,916.521,VALID,0,VALID,97.2595,VALID,0.107441,VALID,19.0008,VALID,108,VALID,0,
2013-08-19, 02:40:04,VALID,916.49,VALID,0,VALID,97.2748,VALID,0,VALID,18.9814,VALID,114,VALID,0,
2013-08-19, 02:41:04,VALID,916.433,VALID,0.2,VALID,97.2519,VALID,0,VALID,18.9814,VALID,104,VALID,0,
2013-08-19, 02:42:04,VALID,916.42,VALID,0,VALID,97.2443,VALID,0,VALID,19.0023,VALID,116,VALID,0,
2013-08-19, 02:43:04,VALID,916.426,VALID,0,VALID,97.2519,VALID,0,VALID,18.9814,VALID,110,VALID,0,
2013-08-19, 02:44:04,VALID,916.429,VALID,0.2,VALID,97.2595,VALID,0,VALID,19.0023,VALID,121,VALID,0,
2013-08-19, 02:45:04,VALID,916.439,VALID,0,VALID,97.2443,VALID,0,VALID,19.0203,VALID,116,VALID,0,
2013-08-19, 02:46:04,VALID,916.47,VALID,0,VALID,97.2519,VALID,0,VALID,19.0218,VALID,116,VALID,0,
2013-08-19, 02:47:04,VALID,916.433,VALID,0.2,VALID,97.2367,VALID,0,VALID,19.0203,VALID,116,VALID,0,
2013-08-19, 02:48:04,VALID,916.441,VALID,0,VALID,97.2824,VALID,0,VALID,19.0203,VALID,116,VALID,0,
2013-08-19, 02:49:04,VALID,916.41,VALID,0,VALID,97.2595,VALID,0,VALID,19.0203,VALID,96,VALID,0,
2013-08-19, 02:50:04,VALID,916.408,VALID,0,VALID,97.2519,VALID,0,VALID,19.0203,VALID,96,VALID,0,
2013-08-19, 02:51:04,VALID,916.384,VALID,0.2,VALID,97.2672,VALID,0,VALID,19.0398,VALID,96,VALID,0,
2013-08-19, 02:52:04,VALID,916.346,VALID,0,VALID,97.2595,VALID,0,VALID,19.0983,VALID,96,VALID,0,
2013-08-19, 02:53:04,VALID,916.358,VALID,0,VALID,97.2595,VALID,0,VALID,19.0983,VALID,96,VALID,0,
2013-08-19, 02:54:04,VALID,916.331,VALID,0,VALID,97.2595,VALID,0,VALID,19.0983,VALID,96,VALID,0,
2013-08-19, 02:55:04,VALID,916.32,VALID,0,VALID,97.2519,VALID,0,VALID,19.1178,VALID,96,VALID,0,
2013-08-19, 02:56:04,VALID,916.327,VALID,0,VALID,97.2519,VALID,0,VALID,19.0983,VALID,96,VALID,0,
2013-08-19, 02:57:04,VALID,916.357,VALID,0,VALID,97.2824,VALID,0.107441,VALID,19.0788,VALID,96,VALID,0,
2013-08-19, 02:58:04,VALID,916.318,VALID,0,VALID,97.2672,VALID,0,VALID,19.0788,VALID,96,VALID,0,
2013-08-19, 02:59:04,VALID,916.326,VALID,0,VALID,97.2672,VALID,0,VALID,19.0593,VALID,96,VALID,0,
2013-08-19, 03:00:04,VALID,916.283,VALID,0,VALID,97.2672,VALID,0,VALID,19.0803,VALID,96,VALID,0,
2013-08-19, 03:01:04,VALID,916.264,VALID,0,VALID,97.2748,VALID,0,VALID,19.0398,VALID,96,VALID,0,
2013-08-19, 03:02:04,VALID,916.271,VALID,0,VALID,97.2824,VALID,0,VALID,18.9994,VALID,96,VALID,0,
2013-08-19, 03:03:04,VALID,916.255,VALID,0,VALID,97.2672,VALID,0,VALID,19.0427,VALID,96,VALID,0,
2013-08-19, 03:04:04,VALID,916.248,VALID,0,VALID,97.2824,VALID,0,VALID,19.0023,VALID,96,VALID,0,
2013-08-19, 03:05:04,VALID,916.258,VALID,0.2,VALID,97.2748,VALID,0,VALID,19.0232,VALID,96,VALID,0,
2013-08-19, 03:06:04,VALID,916.255,VALID,0,VALID,97.29,VALID,0,VALID,19.0427,VALID,96,VALID,0,
2013-08-19, 03:07:04,VALID,916.265,VALID,0,VALID,97.2824,VALID,0,VALID,18.9799,VALID,96,VALID,0,
2013-08-19, 03:08:04,VALID,916.232,VALID,0,VALID,97.29,VALID,0,VALID,18.9814,VALID,96,VALID,0,
2013-08-19, 03:09:04,VALID,916.249,VALID,0,VALID,97.2748,VALID,0,VALID,19.0413,VALID,96,VALID,0,
2013-08-19, 03:10:04,VALID,916.251,VALID,0,VALID,97.2748,VALID,0,VALID,19.0413,VALID,96,VALID,0,
2013-08-19, 03:11:04,VALID,916.217,VALID,0,VALID,97.2824,VALID,0,VALID,19.0189,VALID,96,VALID,0,
2013-08-19, 03:12:04,VALID,916.219,VALID,0,VALID,97.2672,VALID,0.107441,VALID,19.0788,VALID,96,VALID,0,
2013-08-19, 03:13:04,VALID,916.185,VALID,0.2,VALID,97.2748,VALID,0,VALID,19.1193,VALID,96,VALID,0,
2013-08-19, 03:14:04,VALID,916.187,VALID,0,VALID,97.2748,VALID,0,VALID,19.0593,VALID,96,VALID,0,
2013-08-19, 03:15:04,VALID,916.162,VALID,0,VALID,97.2748,VALID,0,VALID,19.0998,VALID,96,VALID,0,
2013-08-19, 03:16:04,VALID,916.18,VALID,0,VALID,97.29,VALID,0.107441,VALID,19.0189,VALID,92,VALID,0,
2013-08-19, 03:17:04,VALID,916.194,VALID,0.2,VALID,97.2977,VALID,0,VALID,19.0023,VALID,91,VALID,0,
2013-08-19, 03:18:04,VALID,916.165,VALID,0.2,VALID,97.2824,VALID,0.107441,VALID,18.9619,VALID,92,VALID,0,
2013-08-19, 03:19:04,VALID,916.168,VALID,0,VALID,97.2824,VALID,0,VALID,18.9814,VALID,95,VALID,0,
2013-08-19, 03:20:04,VALID,916.12,VALID,0.2,VALID,97.3053,VALID,0,VALID,18.9814,VALID,95,VALID,0,
2013-08-19, 03:21:04,VALID,916.104,VALID,0,VALID,97.29,VALID,0,VALID,18.9814,VALID,95,VALID,0,
2013-08-19, 03:22:04,VALID,916.112,VALID,0,VALID,97.2824,VALID,0,VALID,19.0203,VALID,95,VALID,0,
2013-08-19, 03:23:04,VALID,916.115,VALID,0.2,VALID,97.2824,VALID,0.107441,VALID,19.0008,VALID,95,VALID,0,
2013-08-19, 03:24:04,VALID,916.08,VALID,0,VALID,97.29,VALID,0,VALID,19.0008,VALID,95,VALID,0,
2013-08-19, 03:25:04,VALID,916.059,VALID,0,VALID,97.2824,VALID,0.107441,VALID,19.0203,VALID,95,VALID,0,
2013-08-19, 03:26:04,VALID,916.044,VALID,0,VALID,97.2672,VALID,0,VALID,19.0398,VALID,95,VALID,0,
2013-08-19, 03:27:04,VALID,916.042,VALID,0.2,VALID,97.2977,VALID,0,VALID,19.0008,VALID,95,VALID,0,
2013-08-19, 03:28:04,VALID,916.024,VALID,0,VALID,97.2748,VALID,0,VALID,19.0593,VALID,95,VALID,0,
2013-08-19, 03:29:04,VALID,916.062,VALID,0,VALID,97.29,VALID,0,VALID,19.0593,VALID,95,VALID,0,
2013-08-19, 03:30:04,VALID,916.078,VALID,0,VALID,97.29,VALID,0,VALID,19.0593,VALID,95,VALID,0,
2013-08-19, 03:31:04,VALID,916.069,VALID,0,VALID,97.3053,VALID,0,VALID,19.0593,VALID,95,VALID,0,
2013-08-19, 03:32:04,VALID,916.092,VALID,0.2,VALID,97.2824,VALID,0,VALID,19.0593,VALID,128,VALID,0,
2013-08-19, 03:33:04,VALID,916.081,VALID,0,VALID,97.29,VALID,0,VALID,19.0413,VALID,127,VALID,0,
2013-08-19, 03:34:04,VALID,916.065,VALID,0,VALID,97.2672,VALID,0,VALID,19.0413,VALID,127,VALID,0,
2013-08-19, 03:35:04,VALID,916.09,VALID,0,VALID,97.3053,VALID,0,VALID,19.0008,VALID,127,VALID,0,
2013-08-19, 03:36:04,VALID,916.035,VALID,0,VALID,97.3053,VALID,0,VALID,19.0398,VALID,127,VALID,0,
2013-08-19, 03:37:04,VALID,916.032,VALID,0,VALID,97.2824,VALID,0,VALID,19.0803,VALID,127,VALID,0,
2013-08-19, 03:38:04,VALID,916.033,VALID,0,VALID,97.3053,VALID,0,VALID,19.0398,VALID,127,VALID,0,
2013-08-19, 03:39:04,VALID,916.066,VALID,0,VALID,97.2977,VALID,0,VALID,19.0593,VALID,127,VALID,0,
2013-08-19, 03:40:04,VALID,916.061,VALID,0,VALID,97.2977,VALID,0,VALID,19.0593,VALID,127,VALID,0,
2013-08-19, 03:41:04,VALID,916.093,VALID,0,VALID,97.2977,VALID,0.107441,VALID,19.0593,VALID,127,VALID,0,
2013-08-19, 03:42:04,VALID,916.099,VALID,0,VALID,97.3053,VALID,0,VALID,19.0398,VALID,127,VALID,0,
2013-08-19, 03:43:04,VALID,916.129,VALID,0.2,VALID,97.2977,VALID,0,VALID,19.0398,VALID,127,VALID,0,
2013-08-19, 03:44:04,VALID,916.109,VALID,0,VALID,97.2977,VALID,0,VALID,19.0788,VALID,127,VALID,0,
2013-08-19, 03:45:04,VALID,916.111,VALID,0,VALID,97.2977,VALID,0,VALID,19.0593,VALID,127,VALID,0,
2013-08-19, 03:46:04,VALID,916.097,VALID,0,VALID,97.3205,VALID,0,VALID,19.0803,VALID,127,VALID,0,
2013-08-19, 03:47:04,VALID,916.098,VALID,0,VALID,97.3053,VALID,0,VALID,19.1193,VALID,127,VALID,0,
2013-08-19, 03:48:04,VALID,916.098,VALID,0,VALID,97.2977,VALID,0,VALID,19.0983,VALID,127,VALID,0,
2013-08-19, 03:49:04,VALID,916.098,VALID,0,VALID,97.3129,VALID,0,VALID,19.0983,VALID,127,VALID,0,
2013-08-19, 03:50:04,VALID,916.089,VALID,0,VALID,97.3053,VALID,0,VALID,19.0983,VALID,127,VALID,0,
2013-08-19, 03:51:04,VALID,916.085,VALID,0,VALID,97.3053,VALID,0,VALID,19.1388,VALID,127,VALID,0,
2013-08-19, 03:52:04,VALID,916.09,VALID,0.2,VALID,97.2977,VALID,0,VALID,19.0788,VALID,127,VALID,0,
2013-08-19, 03:53:04,VALID,916.073,VALID,0,VALID,97.2977,VALID,0,VALID,19.1193,VALID,127,VALID,0,
2013-08-19, 03:54:04,VALID,916.1,VALID,0,VALID,97.2977,VALID,0,VALID,19.0983,VALID,129,VALID,0,
2013-08-19, 03:55:04,VALID,916.079,VALID,0,VALID,97.2977,VALID,0,VALID,19.0983,VALID,129,VALID,0,
2013-08-19, 03:56:04,VALID,916.046,VALID,0,VALID,97.2977,VALID,0,VALID,19.1178,VALID,129,VALID,0,
2013-08-19, 03:57:04,VALID,916.086,VALID,0,VALID,97.3053,VALID,0,VALID,19.0983,VALID,133,VALID,0,